Weather Roundup
Issued by NWS Chicago, IL

Home | Current Version | Previous Version | Text Only | Print | Product List | Glossary Off
Versions: 1 2 3 4 5 6 7 8 9 10 11 12 13 14 15 16 17 18 19 20 21 22 23 24 25 26 27 28 29 30 31 32 33 34 35 36 37 38 39 40 41 42 43 44 45 46 47 48 49 50

000
NZUS59 KLOT 311006
HRRLOT

CHICAGO AREA WEATHER ROUNDUP
NATIONAL WEATHER SERVICE CHICAGO/ROMEOVILLE IL
500 AM CDT THU JUL 31 2014

NOTE: "FAIR" INDICATES FEW OR NO CLOUDS BELOW 12,000 FEET WITH NO
SIGNIFICANT WEATHER AND/OR OBSTRUCTIONS TO VISIBILITY.

* THESE STATIONS ARE NOT UNDER NWS QUALITY CONTROL. THEY ALSO MAY NOT
  REPORT WEATHER SUCH AS PRECIPITATION OR FOG.

ILZ005-006-012>014-019>023-311100-
NORTHEAST ILLINOIS

CITY           SKY/WX    TMP DP  RH WIND       PRES   REMARKS
OHARE          CLEAR     62  56  80 W5        30.02R
MIDWAY         CLEAR     64  58  80 S6        30.02S
AURORA         CLEAR     54  51  90 CALM      30.04R FOG
LANSING*       CLEAR     55  54  95 SW3       30.04R FOG
JOLIET*        FOG       55  53  96 CALM      30.04S VSB 1/4
WAUKEGAN       PTCLDY    60  56  86 VRB3      30.01R
DUPAGE AIRPORT CLEAR     59  57  93 S3        30.03R FOG
WHEELING       PTCLDY    62  57  83 S3        30.03S
KANKAKEE*      CLEAR     54  54  99 CALM      30.05S FOG
MORRIS*        CLEAR     55  55 100 SW3       30.04R
LEWIS AIRPORT*   N/A     55  55 100 CALM      30.04S FOG
NORTHERLY IS     N/A     64  57  78 SW5         N/A
$$

WIZ051-052-058>065-066-070>072-311100-
SOUTHEAST WISCONSIN

CITY           SKY/WX    TMP DP  RH WIND       PRES   REMARKS
MILWAUKEE      MOCLDY    62  53  72 W8        29.99F
KENOSHA*       CLEAR     58  57  97 SW6       30.01S FOG
RACINE*        CLEAR     60  55  83 SW7       30.02R
BURLINGTON     PTCLDY    55  53  94 SW6       30.01S
WAUKESHA       MOCLDY    55  52  88 CALM      30.01S
WEST BEND      CLOUDY    61  54  77 SW3       29.99S
$$

INZ001>003-010>013-019-020-311100-
NORTHWEST INDIANA

CITY           SKY/WX    TMP DP  RH WIND       PRES   REMARKS
GARY*          CLEAR     61  59  94 SW7       30.04R FOG
MICHIGAN CITY* NOT AVBL
RENSSELAER*    NOT AVBL
VALPARAISO     CLEAR     55  54  96 CALM      30.05R FOG
$$

LMZ740>746-311100-
SOUTHERN LAKE MICHIGAN

STATION/POSITION TIME  SKY/WX   TEMP WIND        PRES    VSBY
                                AIR  DIR/SP/G
                 (UTC)          (F)  (DEG/KT/KT) (MB)    (MI)
HARRISON CRIB    1000            66  210/ 15/ 17   N/A
BURNHAM HARBOR   1000            65  210/  5/  7   N/A
CALUMET HARBOR   1000            63  220/  4/  6 1015.5S
BURNS HARBOR     NOT AVBL
MICHIGAN CITY    1000            63  160/  7/ 10   N/A
$$

ABBREVIATIONS USED IN REMARKS
   TC - TEMPERATURE IN CELSIUS
  WCI - WIND CHILL INDEX
   HX - HEAT INDEX
  VSB - VISIBILITY
$$



USA.gov is the U.S. government's official web portal to all federal, state and local government web resources and services.